Index of /20260414/WXO-DD/model_gdps/15km/12/021
Name Last modified Size Description
Parent Directory -
20260414T12Z_MSC_GDPS_AbsoluteVorticity_IsbL-0200_LatLon0.15_PT021H.grib2 2026-04-14 16:07 1.2M
20260414T12Z_MSC_GDPS_AbsoluteVorticity_IsbL-0250_LatLon0.15_PT021H.grib2 2026-04-14 16:08 1.3M
20260414T12Z_MSC_GDPS_AbsoluteVorticity_IsbL-0500_LatLon0.15_PT021H.grib2 2026-04-14 16:07 1.5M
20260414T12Z_MSC_GDPS_AbsoluteVorticity_IsbL-0700_LatLon0.15_PT021H.grib2 2026-04-14 16:07 1.3M
20260414T12Z_MSC_GDPS_AbsoluteVorticity_IsbL-0850_LatLon0.15_PT021H.grib2 2026-04-14 16:08 1.6M
20260414T12Z_MSC_GDPS_AirTemp_AGL-120m_LatLon0.15_PT021H.grib2 2026-04-14 16:08 908K
20260414T12Z_MSC_GDPS_AirTemp_AGL-2m_LatLon0.15_PT021H.grib2 2026-04-14 16:08 1.0M
20260414T12Z_MSC_GDPS_AirTemp_AGL-40m_LatLon0.15_PT021H.grib2 2026-04-14 16:08 924K
20260414T12Z_MSC_GDPS_AirTemp_AGL-80m_LatLon0.15_PT021H.grib2 2026-04-14 16:08 914K
20260414T12Z_MSC_GDPS_AirTemp_IsbL-0001_LatLon0.15_PT021H.grib2 2026-04-14 16:08 692K
20260414T12Z_MSC_GDPS_AirTemp_IsbL-0005_LatLon0.15_PT021H.grib2 2026-04-14 16:08 680K
20260414T12Z_MSC_GDPS_AirTemp_IsbL-0010_LatLon0.15_PT021H.grib2 2026-04-14 16:07 755K
20260414T12Z_MSC_GDPS_AirTemp_IsbL-0020_LatLon0.15_PT021H.grib2 2026-04-14 16:08 699K
20260414T12Z_MSC_GDPS_AirTemp_IsbL-0030_LatLon0.15_PT021H.grib2 2026-04-14 16:07 747K
20260414T12Z_MSC_GDPS_AirTemp_IsbL-0050_LatLon0.15_PT021H.grib2 2026-04-14 16:08 890K
20260414T12Z_MSC_GDPS_AirTemp_IsbL-0100_LatLon0.15_PT021H.grib2 2026-04-14 16:08 945K
20260414T12Z_MSC_GDPS_AirTemp_IsbL-0150_LatLon0.15_PT021H.grib2 2026-04-14 16:07 962K
20260414T12Z_MSC_GDPS_AirTemp_IsbL-0175_LatLon0.15_PT021H.grib2 2026-04-14 16:07 947K
20260414T12Z_MSC_GDPS_AirTemp_IsbL-0200_LatLon0.15_PT021H.grib2 2026-04-14 16:07 958K
20260414T12Z_MSC_GDPS_AirTemp_IsbL-0225_LatLon0.15_PT021H.grib2 2026-04-14 16:07 965K
20260414T12Z_MSC_GDPS_AirTemp_IsbL-0250_LatLon0.15_PT021H.grib2 2026-04-14 16:07 1.0M
20260414T12Z_MSC_GDPS_AirTemp_IsbL-0275_LatLon0.15_PT021H.grib2 2026-04-14 16:07 939K
20260414T12Z_MSC_GDPS_AirTemp_IsbL-0300_LatLon0.15_PT021H.grib2 2026-04-14 16:07 951K
20260414T12Z_MSC_GDPS_AirTemp_IsbL-0350_LatLon0.15_PT021H.grib2 2026-04-14 16:07 929K
20260414T12Z_MSC_GDPS_AirTemp_IsbL-0400_LatLon0.15_PT021H.grib2 2026-04-14 16:07 939K
20260414T12Z_MSC_GDPS_AirTemp_IsbL-0450_LatLon0.15_PT021H.grib2 2026-04-14 16:07 959K
20260414T12Z_MSC_GDPS_AirTemp_IsbL-0500_LatLon0.15_PT021H.grib2 2026-04-14 16:07 1.0M
20260414T12Z_MSC_GDPS_AirTemp_IsbL-0550_LatLon0.15_PT021H.grib2 2026-04-14 16:07 1.0M
20260414T12Z_MSC_GDPS_AirTemp_IsbL-0600_LatLon0.15_PT021H.grib2 2026-04-14 16:08 888K
20260414T12Z_MSC_GDPS_AirTemp_IsbL-0650_LatLon0.15_PT021H.grib2 2026-04-14 16:07 918K
20260414T12Z_MSC_GDPS_AirTemp_IsbL-0700_LatLon0.15_PT021H.grib2 2026-04-14 16:07 952K
20260414T12Z_MSC_GDPS_AirTemp_IsbL-0750_LatLon0.15_PT021H.grib2 2026-04-14 16:07 1.0M
20260414T12Z_MSC_GDPS_AirTemp_IsbL-0800_LatLon0.15_PT021H.grib2 2026-04-14 16:07 1.1M
20260414T12Z_MSC_GDPS_AirTemp_IsbL-0850_LatLon0.15_PT021H.grib2 2026-04-14 16:08 1.1M
20260414T12Z_MSC_GDPS_AirTemp_IsbL-0875_LatLon0.15_PT021H.grib2 2026-04-14 16:07 1.2M
20260414T12Z_MSC_GDPS_AirTemp_IsbL-0900_LatLon0.15_PT021H.grib2 2026-04-14 16:07 1.1M
20260414T12Z_MSC_GDPS_AirTemp_IsbL-0925_LatLon0.15_PT021H.grib2 2026-04-14 16:07 1.1M
20260414T12Z_MSC_GDPS_AirTemp_IsbL-0950_LatLon0.15_PT021H.grib2 2026-04-14 16:07 1.1M
20260414T12Z_MSC_GDPS_AirTemp_IsbL-0970_LatLon0.15_PT021H.grib2 2026-04-14 16:08 1.2M
20260414T12Z_MSC_GDPS_AirTemp_IsbL-0985_LatLon0.15_PT021H.grib2 2026-04-14 16:08 1.1M
20260414T12Z_MSC_GDPS_AirTemp_IsbL-1000_LatLon0.15_PT021H.grib2 2026-04-14 16:08 1.1M
20260414T12Z_MSC_GDPS_AirTemp_IsbL-1015_LatLon0.15_PT021H.grib2 2026-04-14 16:08 1.1M
20260414T12Z_MSC_GDPS_Albedo_Sfc_LatLon0.15_PT021H.grib2 2026-04-14 16:08 244K
20260414T12Z_MSC_GDPS_CAPE_Sfc_LatLon0.15_PT021H.grib2 2026-04-14 16:08 3.8M
20260414T12Z_MSC_GDPS_CIN_Sfc_LatLon0.15_PT021H.grib2 2026-04-14 16:08 2.9M
20260414T12Z_MSC_GDPS_CloudWater_EAtm_LatLon0.15_PT021H.grib2 2026-04-14 16:08 525K
20260414T12Z_MSC_GDPS_ConvectivePrecip-Accum_Sfc_LatLon0.15_PT021H.grib2 2026-04-14 16:08 2.2M
20260414T12Z_MSC_GDPS_DewPointDepression_AGL-2m_LatLon0.15_PT021H.grib2 2026-04-14 16:07 755K
20260414T12Z_MSC_GDPS_DewPointDepression_IsbL-0010_LatLon0.15_PT021H.grib2 2026-04-14 16:07 5.2K
20260414T12Z_MSC_GDPS_DewPointDepression_IsbL-0020_LatLon0.15_PT021H.grib2 2026-04-14 16:07 68K
20260414T12Z_MSC_GDPS_DewPointDepression_IsbL-0030_LatLon0.15_PT021H.grib2 2026-04-14 16:07 71K
20260414T12Z_MSC_GDPS_DewPointDepression_IsbL-0050_LatLon0.15_PT021H.grib2 2026-04-14 16:08 357K
20260414T12Z_MSC_GDPS_DewPointDepression_IsbL-0100_LatLon0.15_PT021H.grib2 2026-04-14 16:07 375K
20260414T12Z_MSC_GDPS_DewPointDepression_IsbL-0150_LatLon0.15_PT021H.grib2 2026-04-14 16:07 453K
20260414T12Z_MSC_GDPS_DewPointDepression_IsbL-0175_LatLon0.15_PT021H.grib2 2026-04-14 16:07 528K
20260414T12Z_MSC_GDPS_DewPointDepression_IsbL-0200_LatLon0.15_PT021H.grib2 2026-04-14 16:07 621K
20260414T12Z_MSC_GDPS_DewPointDepression_IsbL-0225_LatLon0.15_PT021H.grib2 2026-04-14 16:07 756K
20260414T12Z_MSC_GDPS_DewPointDepression_IsbL-0250_LatLon0.15_PT021H.grib2 2026-04-14 16:07 872K
20260414T12Z_MSC_GDPS_DewPointDepression_IsbL-0275_LatLon0.15_PT021H.grib2 2026-04-14 16:07 896K
20260414T12Z_MSC_GDPS_DewPointDepression_IsbL-0300_LatLon0.15_PT021H.grib2 2026-04-14 16:07 940K
20260414T12Z_MSC_GDPS_DewPointDepression_IsbL-0350_LatLon0.15_PT021H.grib2 2026-04-14 16:07 973K
20260414T12Z_MSC_GDPS_DewPointDepression_IsbL-0400_LatLon0.15_PT021H.grib2 2026-04-14 16:07 1.0M
20260414T12Z_MSC_GDPS_DewPointDepression_IsbL-0450_LatLon0.15_PT021H.grib2 2026-04-14 16:07 1.0M
20260414T12Z_MSC_GDPS_DewPointDepression_IsbL-0500_LatLon0.15_PT021H.grib2 2026-04-14 16:07 1.0M
20260414T12Z_MSC_GDPS_DewPointDepression_IsbL-0550_LatLon0.15_PT021H.grib2 2026-04-14 16:07 1.1M
20260414T12Z_MSC_GDPS_DewPointDepression_IsbL-0600_LatLon0.15_PT021H.grib2 2026-04-14 16:07 1.1M
20260414T12Z_MSC_GDPS_DewPointDepression_IsbL-0650_LatLon0.15_PT021H.grib2 2026-04-14 16:07 1.1M
20260414T12Z_MSC_GDPS_DewPointDepression_IsbL-0700_LatLon0.15_PT021H.grib2 2026-04-14 16:07 1.1M
20260414T12Z_MSC_GDPS_DewPointDepression_IsbL-0750_LatLon0.15_PT021H.grib2 2026-04-14 16:08 1.1M
20260414T12Z_MSC_GDPS_DewPointDepression_IsbL-0800_LatLon0.15_PT021H.grib2 2026-04-14 16:08 1.2M
20260414T12Z_MSC_GDPS_DewPointDepression_IsbL-0850_LatLon0.15_PT021H.grib2 2026-04-14 16:07 1.1M
20260414T12Z_MSC_GDPS_DewPointDepression_IsbL-0875_LatLon0.15_PT021H.grib2 2026-04-14 16:07 1.1M
20260414T12Z_MSC_GDPS_DewPointDepression_IsbL-0900_LatLon0.15_PT021H.grib2 2026-04-14 16:07 1.1M
20260414T12Z_MSC_GDPS_DewPointDepression_IsbL-0925_LatLon0.15_PT021H.grib2 2026-04-14 16:07 1.0M
20260414T12Z_MSC_GDPS_DewPointDepression_IsbL-0950_LatLon0.15_PT021H.grib2 2026-04-14 16:07 1.0M
20260414T12Z_MSC_GDPS_DewPointDepression_IsbL-0970_LatLon0.15_PT021H.grib2 2026-04-14 16:07 1.0M
20260414T12Z_MSC_GDPS_DewPointDepression_IsbL-0985_LatLon0.15_PT021H.grib2 2026-04-14 16:07 1.0M
20260414T12Z_MSC_GDPS_DewPointDepression_IsbL-1000_LatLon0.15_PT021H.grib2 2026-04-14 16:07 1.0M
20260414T12Z_MSC_GDPS_DewPointDepression_IsbL-1015_LatLon0.15_PT021H.grib2 2026-04-14 16:07 913K
20260414T12Z_MSC_GDPS_DewPoint_AGL-2m_LatLon0.15_PT021H.grib2 2026-04-14 16:07 614K
20260414T12Z_MSC_GDPS_DownwardLongwaveRadiationFlux-Accum_Sfc_LatLon0.15_PT021H.grib2 2026-04-14 16:07 902K
20260414T12Z_MSC_GDPS_DownwardShortwaveRadiationFlux-Accum_NTAtm_LatLon0.15_PT021H.grib2 2026-04-14 16:07 340K
20260414T12Z_MSC_GDPS_DownwardShortwaveRadiationFlux-Accum_Sfc_LatLon0.15_PT021H.grib2 2026-04-14 16:07 1.1M
20260414T12Z_MSC_GDPS_FreezingRain-Accum1h_Sfc_LatLon0.15_PT021H.grib2 2026-04-14 16:07 39K
20260414T12Z_MSC_GDPS_FreezingRain-Accum3h_Sfc_LatLon0.15_PT021H.grib2 2026-04-14 16:07 42K
20260414T12Z_MSC_GDPS_FreezingRain-Accum_Sfc_LatLon0.15_PT021H.grib2 2026-04-14 16:07 105K
20260414T12Z_MSC_GDPS_GeopotentialHeight_IsbL-0001_LatLon0.15_PT021H.grib2 2026-04-14 16:07 540K
20260414T12Z_MSC_GDPS_GeopotentialHeight_IsbL-0005_LatLon0.15_PT021H.grib2 2026-04-14 16:07 511K
20260414T12Z_MSC_GDPS_GeopotentialHeight_IsbL-0010_LatLon0.15_PT021H.grib2 2026-04-14 16:07 583K
20260414T12Z_MSC_GDPS_GeopotentialHeight_IsbL-0020_LatLon0.15_PT021H.grib2 2026-04-14 16:08 581K
20260414T12Z_MSC_GDPS_GeopotentialHeight_IsbL-0030_LatLon0.15_PT021H.grib2 2026-04-14 16:08 582K
20260414T12Z_MSC_GDPS_GeopotentialHeight_IsbL-0050_LatLon0.15_PT021H.grib2 2026-04-14 16:07 510K
20260414T12Z_MSC_GDPS_GeopotentialHeight_IsbL-0100_LatLon0.15_PT021H.grib2 2026-04-14 16:07 612K
20260414T12Z_MSC_GDPS_GeopotentialHeight_IsbL-0150_LatLon0.15_PT021H.grib2 2026-04-14 16:07 627K
20260414T12Z_MSC_GDPS_GeopotentialHeight_IsbL-0175_LatLon0.15_PT021H.grib2 2026-04-14 16:07 630K
20260414T12Z_MSC_GDPS_GeopotentialHeight_IsbL-0200_LatLon0.15_PT021H.grib2 2026-04-14 16:07 633K
20260414T12Z_MSC_GDPS_GeopotentialHeight_IsbL-0225_LatLon0.15_PT021H.grib2 2026-04-14 16:07 636K
20260414T12Z_MSC_GDPS_GeopotentialHeight_IsbL-0250_LatLon0.15_PT021H.grib2 2026-04-14 16:08 635K
20260414T12Z_MSC_GDPS_GeopotentialHeight_IsbL-0275_LatLon0.15_PT021H.grib2 2026-04-14 16:07 636K
20260414T12Z_MSC_GDPS_GeopotentialHeight_IsbL-0300_LatLon0.15_PT021H.grib2 2026-04-14 16:07 628K
20260414T12Z_MSC_GDPS_GeopotentialHeight_IsbL-0350_LatLon0.15_PT021H.grib2 2026-04-14 16:07 624K
20260414T12Z_MSC_GDPS_GeopotentialHeight_IsbL-0400_LatLon0.15_PT021H.grib2 2026-04-14 16:07 614K
20260414T12Z_MSC_GDPS_GeopotentialHeight_IsbL-0450_LatLon0.15_PT021H.grib2 2026-04-14 16:07 534K
20260414T12Z_MSC_GDPS_GeopotentialHeight_IsbL-0500_LatLon0.15_PT021H.grib2 2026-04-14 16:07 524K
20260414T12Z_MSC_GDPS_GeopotentialHeight_IsbL-0550_LatLon0.15_PT021H.grib2 2026-04-14 16:07 520K
20260414T12Z_MSC_GDPS_GeopotentialHeight_IsbL-0600_LatLon0.15_PT021H.grib2 2026-04-14 16:07 680K
20260414T12Z_MSC_GDPS_GeopotentialHeight_IsbL-0650_LatLon0.15_PT021H.grib2 2026-04-14 16:07 682K
20260414T12Z_MSC_GDPS_GeopotentialHeight_IsbL-0700_LatLon0.15_PT021H.grib2 2026-04-14 16:08 682K
20260414T12Z_MSC_GDPS_GeopotentialHeight_IsbL-0750_LatLon0.15_PT021H.grib2 2026-04-14 16:08 688K
20260414T12Z_MSC_GDPS_GeopotentialHeight_IsbL-0800_LatLon0.15_PT021H.grib2 2026-04-14 16:07 703K
20260414T12Z_MSC_GDPS_GeopotentialHeight_IsbL-0850_LatLon0.15_PT021H.grib2 2026-04-14 16:07 711K
20260414T12Z_MSC_GDPS_GeopotentialHeight_IsbL-0875_LatLon0.15_PT021H.grib2 2026-04-14 16:07 716K
20260414T12Z_MSC_GDPS_GeopotentialHeight_IsbL-0900_LatLon0.15_PT021H.grib2 2026-04-14 16:07 726K
20260414T12Z_MSC_GDPS_GeopotentialHeight_IsbL-0925_LatLon0.15_PT021H.grib2 2026-04-14 16:08 730K
20260414T12Z_MSC_GDPS_GeopotentialHeight_IsbL-0950_LatLon0.15_PT021H.grib2 2026-04-14 16:07 739K
20260414T12Z_MSC_GDPS_GeopotentialHeight_IsbL-0970_LatLon0.15_PT021H.grib2 2026-04-14 16:07 751K
20260414T12Z_MSC_GDPS_GeopotentialHeight_IsbL-0985_LatLon0.15_PT021H.grib2 2026-04-14 16:07 767K
20260414T12Z_MSC_GDPS_GeopotentialHeight_IsbL-1000_LatLon0.15_PT021H.grib2 2026-04-14 16:07 787K
20260414T12Z_MSC_GDPS_GeopotentialHeight_IsbL-1015_LatLon0.15_PT021H.grib2 2026-04-14 16:07 809K
20260414T12Z_MSC_GDPS_Humidex_Sfc_LatLon0.15_PT021H.grib2 2026-04-14 16:07 5.3M
20260414T12Z_MSC_GDPS_IcePellets-Accum1h_Sfc_LatLon0.15_PT021H.grib2 2026-04-14 16:07 11K
20260414T12Z_MSC_GDPS_IcePellets-Accum3h_Sfc_LatLon0.15_PT021H.grib2 2026-04-14 16:07 15K
20260414T12Z_MSC_GDPS_IcePellets-Accum_Sfc_LatLon0.15_PT021H.grib2 2026-04-14 16:07 31K
20260414T12Z_MSC_GDPS_KIndex_Sfc_LatLon0.15_PT021H.grib2 2026-04-14 16:07 6.5M
20260414T12Z_MSC_GDPS_LatentHeatNetFlux_Sfc_LatLon0.15_PT021H.grib2 2026-04-14 16:07 540K
20260414T12Z_MSC_GDPS_LiftedIndex-MU-VT_IsbL-0500_LatLon0.15_PT021H.grib2 2026-04-14 16:07 5.4M
20260414T12Z_MSC_GDPS_NetLongwaveRadiationFlux-Accum_Sfc_LatLon0.15_PT021H.grib2 2026-04-14 16:07 1.1M
20260414T12Z_MSC_GDPS_NetShortwaveRadiationFlux-Accum_Sfc_LatLon0.15_PT021H.grib2 2026-04-14 16:07 1.1M
20260414T12Z_MSC_GDPS_O3MixingRatio_LatLon0.15_PT021H.grib2 2026-04-14 16:55 2.1M
20260414T12Z_MSC_GDPS_O3_EAtm_LatLon0.15_PT021H.grib2 2026-04-14 16:55 2.1M
20260414T12Z_MSC_GDPS_PlanetaryBoundaryLayerHeight_Sfc_LatLon0.15_PT021H.grib2 2026-04-14 16:07 2.5M
20260414T12Z_MSC_GDPS_Precip-Accum1h_Sfc_LatLon0.15_PT021H.grib2 2026-04-14 16:07 3.2M
20260414T12Z_MSC_GDPS_Precip-Accum3h_Sfc_LatLon0.15_PT021H.grib2 2026-04-14 16:07 3.4M
20260414T12Z_MSC_GDPS_Precip-Accum_Sfc_LatLon0.15_PT021H.grib2 2026-04-14 16:07 4.1M
20260414T12Z_MSC_GDPS_PrecipRate_Sfc_LatLon0.15_PT021H.grib2 2026-04-14 16:07 3.0M
20260414T12Z_MSC_GDPS_PrecipType-Instant_Sfc_LatLon0.15_PT021H.grib2 2026-04-14 16:08 1.5M
20260414T12Z_MSC_GDPS_Pressure_MSL_LatLon0.15_PT021H.grib2 2026-04-14 16:07 823K
20260414T12Z_MSC_GDPS_Pressure_PVU-1.5_LatLon0.15_PT021H.grib2 2026-04-14 16:08 5.8M
20260414T12Z_MSC_GDPS_Pressure_PVU-1_LatLon0.15_PT021H.grib2 2026-04-14 16:07 6.0M
20260414T12Z_MSC_GDPS_Pressure_PVU-2_LatLon0.15_PT021H.grib2 2026-04-14 16:07 5.6M
20260414T12Z_MSC_GDPS_Pressure_Sfc_LatLon0.15_PT021H.grib2 2026-04-14 16:07 1.1M
20260414T12Z_MSC_GDPS_RadiativeTemp_Sfc_LatLon0.15_PT021H.grib2 2026-04-14 16:07 670K
20260414T12Z_MSC_GDPS_Rain-Accum1h_Sfc_LatLon0.15_PT021H.grib2 2026-04-14 16:08 1.6M
20260414T12Z_MSC_GDPS_Rain-Accum3h_Sfc_LatLon0.15_PT021H.grib2 2026-04-14 16:07 1.8M
20260414T12Z_MSC_GDPS_Rain-Accum_Sfc_LatLon0.15_PT021H.grib2 2026-04-14 16:07 3.0M
20260414T12Z_MSC_GDPS_RelativeHumidity_AGL-2m_LatLon0.15_PT021H.grib2 2026-04-14 16:08 1.1M
20260414T12Z_MSC_GDPS_RelativeHumidity_IsbL-0010_LatLon0.15_PT021H.grib2 2026-04-14 16:07 248K
20260414T12Z_MSC_GDPS_RelativeHumidity_IsbL-0020_LatLon0.15_PT021H.grib2 2026-04-14 16:07 396K
20260414T12Z_MSC_GDPS_RelativeHumidity_IsbL-0030_LatLon0.15_PT021H.grib2 2026-04-14 16:07 530K
20260414T12Z_MSC_GDPS_RelativeHumidity_IsbL-0050_LatLon0.15_PT021H.grib2 2026-04-14 16:07 325K
20260414T12Z_MSC_GDPS_RelativeHumidity_IsbL-0100_LatLon0.15_PT021H.grib2 2026-04-14 16:07 495K
20260414T12Z_MSC_GDPS_RelativeHumidity_IsbL-0150_LatLon0.15_PT021H.grib2 2026-04-14 16:07 644K
20260414T12Z_MSC_GDPS_RelativeHumidity_IsbL-0175_LatLon0.15_PT021H.grib2 2026-04-14 16:07 760K
20260414T12Z_MSC_GDPS_RelativeHumidity_IsbL-0200_LatLon0.15_PT021H.grib2 2026-04-14 16:07 671K
20260414T12Z_MSC_GDPS_RelativeHumidity_IsbL-0225_LatLon0.15_PT021H.grib2 2026-04-14 16:07 764K
20260414T12Z_MSC_GDPS_RelativeHumidity_IsbL-0250_LatLon0.15_PT021H.grib2 2026-04-14 16:07 856K
20260414T12Z_MSC_GDPS_RelativeHumidity_IsbL-0275_LatLon0.15_PT021H.grib2 2026-04-14 16:07 883K
20260414T12Z_MSC_GDPS_RelativeHumidity_IsbL-0300_LatLon0.15_PT021H.grib2 2026-04-14 16:07 933K
20260414T12Z_MSC_GDPS_RelativeHumidity_IsbL-0350_LatLon0.15_PT021H.grib2 2026-04-14 16:07 962K
20260414T12Z_MSC_GDPS_RelativeHumidity_IsbL-0400_LatLon0.15_PT021H.grib2 2026-04-14 16:07 1.0M
20260414T12Z_MSC_GDPS_RelativeHumidity_IsbL-0450_LatLon0.15_PT021H.grib2 2026-04-14 16:07 1.0M
20260414T12Z_MSC_GDPS_RelativeHumidity_IsbL-0500_LatLon0.15_PT021H.grib2 2026-04-14 16:07 1.1M
20260414T12Z_MSC_GDPS_RelativeHumidity_IsbL-0550_LatLon0.15_PT021H.grib2 2026-04-14 16:07 1.1M
20260414T12Z_MSC_GDPS_RelativeHumidity_IsbL-0600_LatLon0.15_PT021H.grib2 2026-04-14 16:07 1.0M
20260414T12Z_MSC_GDPS_RelativeHumidity_IsbL-0650_LatLon0.15_PT021H.grib2 2026-04-14 16:07 1.1M
20260414T12Z_MSC_GDPS_RelativeHumidity_IsbL-0700_LatLon0.15_PT021H.grib2 2026-04-14 16:07 1.1M
20260414T12Z_MSC_GDPS_RelativeHumidity_IsbL-0750_LatLon0.15_PT021H.grib2 2026-04-14 16:07 1.2M
20260414T12Z_MSC_GDPS_RelativeHumidity_IsbL-0800_LatLon0.15_PT021H.grib2 2026-04-14 16:07 1.3M
20260414T12Z_MSC_GDPS_RelativeHumidity_IsbL-0850_LatLon0.15_PT021H.grib2 2026-04-14 16:07 1.3M
20260414T12Z_MSC_GDPS_RelativeHumidity_IsbL-0875_LatLon0.15_PT021H.grib2 2026-04-14 16:07 1.3M
20260414T12Z_MSC_GDPS_RelativeHumidity_IsbL-0900_LatLon0.15_PT021H.grib2 2026-04-14 16:07 1.3M
20260414T12Z_MSC_GDPS_RelativeHumidity_IsbL-0925_LatLon0.15_PT021H.grib2 2026-04-14 16:07 1.2M
20260414T12Z_MSC_GDPS_RelativeHumidity_IsbL-0950_LatLon0.15_PT021H.grib2 2026-04-14 16:07 1.2M
20260414T12Z_MSC_GDPS_RelativeHumidity_IsbL-0970_LatLon0.15_PT021H.grib2 2026-04-14 16:07 1.2M
20260414T12Z_MSC_GDPS_RelativeHumidity_IsbL-0985_LatLon0.15_PT021H.grib2 2026-04-14 16:07 1.1M
20260414T12Z_MSC_GDPS_RelativeHumidity_IsbL-1000_LatLon0.15_PT021H.grib2 2026-04-14 16:07 1.1M
20260414T12Z_MSC_GDPS_RelativeHumidity_IsbL-1015_LatLon0.15_PT021H.grib2 2026-04-14 16:07 1.0M
20260414T12Z_MSC_GDPS_RelativeVorticity_IsbL-0200_LatLon0.15_PT021H.grib2 2026-04-14 16:07 1.2M
20260414T12Z_MSC_GDPS_RelativeVorticity_IsbL-0250_LatLon0.15_PT021H.grib2 2026-04-14 16:07 1.3M
20260414T12Z_MSC_GDPS_RelativeVorticity_IsbL-0500_LatLon0.15_PT021H.grib2 2026-04-14 16:07 1.4M
20260414T12Z_MSC_GDPS_RelativeVorticity_IsbL-0700_LatLon0.15_PT021H.grib2 2026-04-14 16:07 1.3M
20260414T12Z_MSC_GDPS_RelativeVorticity_IsbL-0850_LatLon0.15_PT021H.grib2 2026-04-14 16:07 1.6M
20260414T12Z_MSC_GDPS_Runoff-Accum_Sfc_LatLon0.15_PT021H.grib2 2026-04-14 16:07 91K
20260414T12Z_MSC_GDPS_SensibleHeatNetFlux_Sfc_LatLon0.15_PT021H.grib2 2026-04-14 16:07 484K
20260414T12Z_MSC_GDPS_ShowalterIndex_IsbL-0500_LatLon0.15_PT021H.grib2 2026-04-14 16:07 6.2M
20260414T12Z_MSC_GDPS_Snow-Accum1h_Sfc_LatLon0.15_PT021H.grib2 2026-04-14 16:07 1.0M
20260414T12Z_MSC_GDPS_Snow-Accum3h_Sfc_LatLon0.15_PT021H.grib2 2026-04-14 16:07 1.0M
20260414T12Z_MSC_GDPS_Snow-Accum_Sfc_LatLon0.15_PT021H.grib2 2026-04-14 16:07 1.7M
20260414T12Z_MSC_GDPS_SnowDensity_Sfc_LatLon0.15_PT021H.grib2 2026-04-14 16:08 261K
20260414T12Z_MSC_GDPS_SnowDepth_Sfc_LatLon0.15_PT021H.grib2 2026-04-14 16:07 1.8M
20260414T12Z_MSC_GDPS_SoilTemp_DBS-0to10cm_LatLon0.15_PT021H.grib2 2026-04-14 16:07 494K
20260414T12Z_MSC_GDPS_SoilTemp_Sfc_LatLon0.15_PT021H.grib2 2026-04-14 16:07 574K
20260414T12Z_MSC_GDPS_SoilVolumetricIceContent_Sfc_LatLon0.15_PT021H.grib2 2026-04-14 16:07 225K
20260414T12Z_MSC_GDPS_SoilVolumetricWaterContent_DBS-0to10cm_LatLon0.15_PT021H.grib2 2026-04-14 16:07 552K
20260414T12Z_MSC_GDPS_SoilVolumetricWaterContent_DBS-0to1cm_LatLon0.15_PT021H.grib2 2026-04-14 16:07 646K
20260414T12Z_MSC_GDPS_SpecificHumidity_AGL-120m_LatLon0.15_PT021H.grib2 2026-04-14 16:08 1.1M
20260414T12Z_MSC_GDPS_SpecificHumidity_AGL-2m_LatLon0.15_PT021H.grib2 2026-04-14 16:07 1.2M
20260414T12Z_MSC_GDPS_SpecificHumidity_AGL-40m_LatLon0.15_PT021H.grib2 2026-04-14 16:07 1.1M
20260414T12Z_MSC_GDPS_SpecificHumidity_AGL-80m_LatLon0.15_PT021H.grib2 2026-04-14 16:07 1.1M
20260414T12Z_MSC_GDPS_SpecificHumidity_IsbL-0001_LatLon0.15_PT021H.grib2 2026-04-14 16:07 1.2M
20260414T12Z_MSC_GDPS_SpecificHumidity_IsbL-0005_LatLon0.15_PT021H.grib2 2026-04-14 16:07 1.2M
20260414T12Z_MSC_GDPS_SpecificHumidity_IsbL-0010_LatLon0.15_PT021H.grib2 2026-04-14 16:07 1.3M
20260414T12Z_MSC_GDPS_SpecificHumidity_IsbL-0020_LatLon0.15_PT021H.grib2 2026-04-14 16:08 1.4M
20260414T12Z_MSC_GDPS_SpecificHumidity_IsbL-0030_LatLon0.15_PT021H.grib2 2026-04-14 16:07 1.4M
20260414T12Z_MSC_GDPS_SpecificHumidity_IsbL-0050_LatLon0.15_PT021H.grib2 2026-04-14 16:08 1.4M
20260414T12Z_MSC_GDPS_SpecificHumidity_IsbL-0100_LatLon0.15_PT021H.grib2 2026-04-14 16:07 1.3M
20260414T12Z_MSC_GDPS_SpecificHumidity_IsbL-0150_LatLon0.15_PT021H.grib2 2026-04-14 16:07 1.4M
20260414T12Z_MSC_GDPS_SpecificHumidity_IsbL-0175_LatLon0.15_PT021H.grib2 2026-04-14 16:07 1.0M
20260414T12Z_MSC_GDPS_SpecificHumidity_IsbL-0200_LatLon0.15_PT021H.grib2 2026-04-14 16:07 1.0M
20260414T12Z_MSC_GDPS_SpecificHumidity_IsbL-0225_LatLon0.15_PT021H.grib2 2026-04-14 16:07 1.2M
20260414T12Z_MSC_GDPS_SpecificHumidity_IsbL-0250_LatLon0.15_PT021H.grib2 2026-04-14 16:07 1.2M
20260414T12Z_MSC_GDPS_SpecificHumidity_IsbL-0275_LatLon0.15_PT021H.grib2 2026-04-14 16:07 1.1M
20260414T12Z_MSC_GDPS_SpecificHumidity_IsbL-0300_LatLon0.15_PT021H.grib2 2026-04-14 16:07 1.2M
20260414T12Z_MSC_GDPS_SpecificHumidity_IsbL-0350_LatLon0.15_PT021H.grib2 2026-04-14 16:07 1.2M
20260414T12Z_MSC_GDPS_SpecificHumidity_IsbL-0400_LatLon0.15_PT021H.grib2 2026-04-14 16:07 1.4M
20260414T12Z_MSC_GDPS_SpecificHumidity_IsbL-0450_LatLon0.15_PT021H.grib2 2026-04-14 16:07 1.3M
20260414T12Z_MSC_GDPS_SpecificHumidity_IsbL-0500_LatLon0.15_PT021H.grib2 2026-04-14 16:07 1.5M
20260414T12Z_MSC_GDPS_SpecificHumidity_IsbL-0550_LatLon0.15_PT021H.grib2 2026-04-14 16:07 1.3M
20260414T12Z_MSC_GDPS_SpecificHumidity_IsbL-0600_LatLon0.15_PT021H.grib2 2026-04-14 16:07 1.4M
20260414T12Z_MSC_GDPS_SpecificHumidity_IsbL-0650_LatLon0.15_PT021H.grib2 2026-04-14 16:07 1.5M
20260414T12Z_MSC_GDPS_SpecificHumidity_IsbL-0700_LatLon0.15_PT021H.grib2 2026-04-14 16:07 1.6M
20260414T12Z_MSC_GDPS_SpecificHumidity_IsbL-0750_LatLon0.15_PT021H.grib2 2026-04-14 16:07 1.7M
20260414T12Z_MSC_GDPS_SpecificHumidity_IsbL-0800_LatLon0.15_PT021H.grib2 2026-04-14 16:07 1.8M
20260414T12Z_MSC_GDPS_SpecificHumidity_IsbL-0850_LatLon0.15_PT021H.grib2 2026-04-14 16:07 1.9M
20260414T12Z_MSC_GDPS_SpecificHumidity_IsbL-0875_LatLon0.15_PT021H.grib2 2026-04-14 16:07 1.9M
20260414T12Z_MSC_GDPS_SpecificHumidity_IsbL-0900_LatLon0.15_PT021H.grib2 2026-04-14 16:07 1.6M
20260414T12Z_MSC_GDPS_SpecificHumidity_IsbL-0925_LatLon0.15_PT021H.grib2 2026-04-14 16:07 1.6M
20260414T12Z_MSC_GDPS_SpecificHumidity_IsbL-0950_LatLon0.15_PT021H.grib2 2026-04-14 16:07 1.5M
20260414T12Z_MSC_GDPS_SpecificHumidity_IsbL-0970_LatLon0.15_PT021H.grib2 2026-04-14 16:07 1.5M
20260414T12Z_MSC_GDPS_SpecificHumidity_IsbL-0985_LatLon0.15_PT021H.grib2 2026-04-14 16:07 1.5M
20260414T12Z_MSC_GDPS_SpecificHumidity_IsbL-1000_LatLon0.15_PT021H.grib2 2026-04-14 16:07 1.5M
20260414T12Z_MSC_GDPS_SpecificHumidity_IsbL-1015_LatLon0.15_PT021H.grib2 2026-04-14 16:07 1.4M
20260414T12Z_MSC_GDPS_SpecificHumidity_Sfc_LatLon0.15_PT021H.grib2 2026-04-14 16:07 661K
20260414T12Z_MSC_GDPS_Thickness_IsbL-0850to0700_LatLon0.15_PT021H.grib2 2026-04-14 16:07 469K
20260414T12Z_MSC_GDPS_Thickness_IsbL-1000to0500_LatLon0.15_PT021H.grib2 2026-04-14 16:07 370K
20260414T12Z_MSC_GDPS_Thickness_IsbL-1000to0850_LatLon0.15_PT021H.grib2 2026-04-14 16:07 490K
20260414T12Z_MSC_GDPS_TotalCloudCover_Sfc_LatLon0.15_PT021H.grib2 2026-04-14 16:07 832K
20260414T12Z_MSC_GDPS_TotalTotalsIndex_Sfc_LatLon0.15_PT021H.grib2 2026-04-14 16:07 6.2M
20260414T12Z_MSC_GDPS_UVIndex-ClearSky_Sfc_LatLon0.15_PT021H.grib2 2026-04-14 16:55 1.0M
20260414T12Z_MSC_GDPS_UVIndex_Sfc_LatLon0.15_PT021H.grib2 2026-04-14 16:55 1.4M
20260414T12Z_MSC_GDPS_UpwardLongwaveRadiationFlux_NTAtm_LatLon0.15_PT021H.grib2 2026-04-14 16:07 830K
20260414T12Z_MSC_GDPS_VerticalVelocity_IsbL-0200_LatLon0.15_PT021H.grib2 2026-04-14 16:07 1.1M
20260414T12Z_MSC_GDPS_VerticalVelocity_IsbL-0250_LatLon0.15_PT021H.grib2 2026-04-14 16:07 1.0M
20260414T12Z_MSC_GDPS_VerticalVelocity_IsbL-0500_LatLon0.15_PT021H.grib2 2026-04-14 16:07 1.0M
20260414T12Z_MSC_GDPS_VerticalVelocity_IsbL-0600_LatLon0.15_PT021H.grib2 2026-04-14 16:07 1.0M
20260414T12Z_MSC_GDPS_VerticalVelocity_IsbL-0700_LatLon0.15_PT021H.grib2 2026-04-14 16:08 1.2M
20260414T12Z_MSC_GDPS_VerticalVelocity_IsbL-0850_LatLon0.15_PT021H.grib2 2026-04-14 16:07 1.3M
20260414T12Z_MSC_GDPS_WindChill_Sfc_LatLon0.15_PT021H.grib2 2026-04-14 16:07 5.4M
20260414T12Z_MSC_GDPS_WindDir_AGL-10m_LatLon0.15_PT021H.grib2 2026-04-14 16:08 1.3M
20260414T12Z_MSC_GDPS_WindDir_AGL-120m_LatLon0.15_PT021H.grib2 2026-04-14 16:07 1.3M
20260414T12Z_MSC_GDPS_WindDir_AGL-40m_LatLon0.15_PT021H.grib2 2026-04-14 16:07 1.4M
20260414T12Z_MSC_GDPS_WindDir_AGL-80m_LatLon0.15_PT021H.grib2 2026-04-14 16:07 1.4M
20260414T12Z_MSC_GDPS_WindDir_IsbL-0001_LatLon0.15_PT021H.grib2 2026-04-14 16:07 626K
20260414T12Z_MSC_GDPS_WindDir_IsbL-0005_LatLon0.15_PT021H.grib2 2026-04-14 16:07 786K
20260414T12Z_MSC_GDPS_WindDir_IsbL-0010_LatLon0.15_PT021H.grib2 2026-04-14 16:07 868K
20260414T12Z_MSC_GDPS_WindDir_IsbL-0020_LatLon0.15_PT021H.grib2 2026-04-14 16:07 916K
20260414T12Z_MSC_GDPS_WindDir_IsbL-0030_LatLon0.15_PT021H.grib2 2026-04-14 16:07 897K
20260414T12Z_MSC_GDPS_WindDir_IsbL-0050_LatLon0.15_PT021H.grib2 2026-04-14 16:07 950K
20260414T12Z_MSC_GDPS_WindDir_IsbL-0100_LatLon0.15_PT021H.grib2 2026-04-14 16:08 1.0M
20260414T12Z_MSC_GDPS_WindDir_IsbL-0150_LatLon0.15_PT021H.grib2 2026-04-14 16:08 1.0M
20260414T12Z_MSC_GDPS_WindDir_IsbL-0175_LatLon0.15_PT021H.grib2 2026-04-14 16:07 1.0M
20260414T12Z_MSC_GDPS_WindDir_IsbL-0200_LatLon0.15_PT021H.grib2 2026-04-14 16:07 1.1M
20260414T12Z_MSC_GDPS_WindDir_IsbL-0225_LatLon0.15_PT021H.grib2 2026-04-14 16:07 1.1M
20260414T12Z_MSC_GDPS_WindDir_IsbL-0250_LatLon0.15_PT021H.grib2 2026-04-14 16:07 1.1M
20260414T12Z_MSC_GDPS_WindDir_IsbL-0275_LatLon0.15_PT021H.grib2 2026-04-14 16:07 1.2M
20260414T12Z_MSC_GDPS_WindDir_IsbL-0300_LatLon0.15_PT021H.grib2 2026-04-14 16:07 1.2M
20260414T12Z_MSC_GDPS_WindDir_IsbL-0350_LatLon0.15_PT021H.grib2 2026-04-14 16:07 1.2M
20260414T12Z_MSC_GDPS_WindDir_IsbL-0400_LatLon0.15_PT021H.grib2 2026-04-14 16:07 1.3M
20260414T12Z_MSC_GDPS_WindDir_IsbL-0450_LatLon0.15_PT021H.grib2 2026-04-14 16:07 1.3M
20260414T12Z_MSC_GDPS_WindDir_IsbL-0500_LatLon0.15_PT021H.grib2 2026-04-14 16:07 1.4M
20260414T12Z_MSC_GDPS_WindDir_IsbL-0550_LatLon0.15_PT021H.grib2 2026-04-14 16:07 1.4M
20260414T12Z_MSC_GDPS_WindDir_IsbL-0600_LatLon0.15_PT021H.grib2 2026-04-14 16:07 1.5M
20260414T12Z_MSC_GDPS_WindDir_IsbL-0650_LatLon0.15_PT021H.grib2 2026-04-14 16:07 1.5M
20260414T12Z_MSC_GDPS_WindDir_IsbL-0700_LatLon0.15_PT021H.grib2 2026-04-14 16:07 1.6M
20260414T12Z_MSC_GDPS_WindDir_IsbL-0750_LatLon0.15_PT021H.grib2 2026-04-14 16:07 1.7M
20260414T12Z_MSC_GDPS_WindDir_IsbL-0800_LatLon0.15_PT021H.grib2 2026-04-14 16:07 1.8M
20260414T12Z_MSC_GDPS_WindDir_IsbL-0850_LatLon0.15_PT021H.grib2 2026-04-14 16:07 1.9M
20260414T12Z_MSC_GDPS_WindDir_IsbL-0875_LatLon0.15_PT021H.grib2 2026-04-14 16:07 1.9M
20260414T12Z_MSC_GDPS_WindDir_IsbL-0900_LatLon0.15_PT021H.grib2 2026-04-14 16:07 2.0M
20260414T12Z_MSC_GDPS_WindDir_IsbL-0925_LatLon0.15_PT021H.grib2 2026-04-14 16:07 2.0M
20260414T12Z_MSC_GDPS_WindDir_IsbL-0950_LatLon0.15_PT021H.grib2 2026-04-14 16:07 2.0M
20260414T12Z_MSC_GDPS_WindDir_IsbL-0970_LatLon0.15_PT021H.grib2 2026-04-14 16:07 2.0M
20260414T12Z_MSC_GDPS_WindDir_IsbL-0985_LatLon0.15_PT021H.grib2 2026-04-14 16:07 2.0M
20260414T12Z_MSC_GDPS_WindDir_IsbL-1000_LatLon0.15_PT021H.grib2 2026-04-14 16:08 2.0M
20260414T12Z_MSC_GDPS_WindDir_IsbL-1015_LatLon0.15_PT021H.grib2 2026-04-14 16:07 2.0M
20260414T12Z_MSC_GDPS_WindGust-Max_AGL-10m_LatLon0.15_PT021H.grib2 2026-04-14 16:07 2.2M
20260414T12Z_MSC_GDPS_WindGust-Min_AGL-10m_LatLon0.15_PT021H.grib2 2026-04-14 16:08 2.2M
20260414T12Z_MSC_GDPS_WindGust_AGL-10m_LatLon0.15_PT021H.grib2 2026-04-14 16:07 2.2M
20260414T12Z_MSC_GDPS_WindSpeed_AGL-10m_LatLon0.15_PT021H.grib2 2026-04-14 16:07 1.1M
20260414T12Z_MSC_GDPS_WindSpeed_AGL-120m_LatLon0.15_PT021H.grib2 2026-04-14 16:07 1.2M
20260414T12Z_MSC_GDPS_WindSpeed_AGL-40m_LatLon0.15_PT021H.grib2 2026-04-14 16:07 1.2M
20260414T12Z_MSC_GDPS_WindSpeed_AGL-80m_LatLon0.15_PT021H.grib2 2026-04-14 16:07 1.2M
20260414T12Z_MSC_GDPS_WindSpeed_IsbL-0001_LatLon0.15_PT021H.grib2 2026-04-14 16:07 632K
20260414T12Z_MSC_GDPS_WindSpeed_IsbL-0005_LatLon0.15_PT021H.grib2 2026-04-14 16:07 693K
20260414T12Z_MSC_GDPS_WindSpeed_IsbL-0010_LatLon0.15_PT021H.grib2 2026-04-14 16:07 632K
20260414T12Z_MSC_GDPS_WindSpeed_IsbL-0020_LatLon0.15_PT021H.grib2 2026-04-14 16:07 674K
20260414T12Z_MSC_GDPS_WindSpeed_IsbL-0030_LatLon0.15_PT021H.grib2 2026-04-14 16:07 861K
20260414T12Z_MSC_GDPS_WindSpeed_IsbL-0050_LatLon0.15_PT021H.grib2 2026-04-14 16:07 915K
20260414T12Z_MSC_GDPS_WindSpeed_IsbL-0100_LatLon0.15_PT021H.grib2 2026-04-14 16:07 1.1M
20260414T12Z_MSC_GDPS_WindSpeed_IsbL-0150_LatLon0.15_PT021H.grib2 2026-04-14 16:07 1.0M
20260414T12Z_MSC_GDPS_WindSpeed_IsbL-0175_LatLon0.15_PT021H.grib2 2026-04-14 16:07 1.0M
20260414T12Z_MSC_GDPS_WindSpeed_IsbL-0200_LatLon0.15_PT021H.grib2 2026-04-14 16:07 1.0M
20260414T12Z_MSC_GDPS_WindSpeed_IsbL-0225_LatLon0.15_PT021H.grib2 2026-04-14 16:07 1.1M
20260414T12Z_MSC_GDPS_WindSpeed_IsbL-0250_LatLon0.15_PT021H.grib2 2026-04-14 16:07 1.1M
20260414T12Z_MSC_GDPS_WindSpeed_IsbL-0275_LatLon0.15_PT021H.grib2 2026-04-14 16:07 1.1M
20260414T12Z_MSC_GDPS_WindSpeed_IsbL-0300_LatLon0.15_PT021H.grib2 2026-04-14 16:07 1.1M
20260414T12Z_MSC_GDPS_WindSpeed_IsbL-0350_LatLon0.15_PT021H.grib2 2026-04-14 16:07 1.1M
20260414T12Z_MSC_GDPS_WindSpeed_IsbL-0400_LatLon0.15_PT021H.grib2 2026-04-14 16:07 1.1M
20260414T12Z_MSC_GDPS_WindSpeed_IsbL-0450_LatLon0.15_PT021H.grib2 2026-04-14 16:07 1.1M
20260414T12Z_MSC_GDPS_WindSpeed_IsbL-0500_LatLon0.15_PT021H.grib2 2026-04-14 16:08 1.1M
20260414T12Z_MSC_GDPS_WindSpeed_IsbL-0550_LatLon0.15_PT021H.grib2 2026-04-14 16:07 1.1M
20260414T12Z_MSC_GDPS_WindSpeed_IsbL-0600_LatLon0.15_PT021H.grib2 2026-04-14 16:07 1.4M
20260414T12Z_MSC_GDPS_WindSpeed_IsbL-0650_LatLon0.15_PT021H.grib2 2026-04-14 16:07 1.4M
20260414T12Z_MSC_GDPS_WindSpeed_IsbL-0700_LatLon0.15_PT021H.grib2 2026-04-14 16:07 1.5M
20260414T12Z_MSC_GDPS_WindSpeed_IsbL-0750_LatLon0.15_PT021H.grib2 2026-04-14 16:07 1.5M
20260414T12Z_MSC_GDPS_WindSpeed_IsbL-0800_LatLon0.15_PT021H.grib2 2026-04-14 16:07 1.6M
20260414T12Z_MSC_GDPS_WindSpeed_IsbL-0850_LatLon0.15_PT021H.grib2 2026-04-14 16:07 1.7M
20260414T12Z_MSC_GDPS_WindSpeed_IsbL-0875_LatLon0.15_PT021H.grib2 2026-04-14 16:07 1.8M
20260414T12Z_MSC_GDPS_WindSpeed_IsbL-0900_LatLon0.15_PT021H.grib2 2026-04-14 16:07 1.9M
20260414T12Z_MSC_GDPS_WindSpeed_IsbL-0925_LatLon0.15_PT021H.grib2 2026-04-14 16:07 1.9M
20260414T12Z_MSC_GDPS_WindSpeed_IsbL-0950_LatLon0.15_PT021H.grib2 2026-04-14 16:07 1.9M
20260414T12Z_MSC_GDPS_WindSpeed_IsbL-0970_LatLon0.15_PT021H.grib2 2026-04-14 16:07 1.9M
20260414T12Z_MSC_GDPS_WindSpeed_IsbL-0985_LatLon0.15_PT021H.grib2 2026-04-14 16:07 1.8M
20260414T12Z_MSC_GDPS_WindSpeed_IsbL-1000_LatLon0.15_PT021H.grib2 2026-04-14 16:07 1.8M
20260414T12Z_MSC_GDPS_WindSpeed_IsbL-1015_LatLon0.15_PT021H.grib2 2026-04-14 16:07 1.8M
20260414T12Z_MSC_GDPS_WindU_AGL-10m_LatLon0.15_PT021H.grib2 2026-04-14 16:07 1.3M
20260414T12Z_MSC_GDPS_WindU_AGL-120m_LatLon0.15_PT021H.grib2 2026-04-14 16:07 968K
20260414T12Z_MSC_GDPS_WindU_AGL-40m_LatLon0.15_PT021H.grib2 2026-04-14 16:07 965K
20260414T12Z_MSC_GDPS_WindU_AGL-80m_LatLon0.15_PT021H.grib2 2026-04-14 16:07 968K
20260414T12Z_MSC_GDPS_WindU_IsbL-0001_LatLon0.15_PT021H.grib2 2026-04-14 16:07 497K
20260414T12Z_MSC_GDPS_WindU_IsbL-0005_LatLon0.15_PT021H.grib2 2026-04-14 16:07 690K
20260414T12Z_MSC_GDPS_WindU_IsbL-0010_LatLon0.15_PT021H.grib2 2026-04-14 16:07 705K
20260414T12Z_MSC_GDPS_WindU_IsbL-0020_LatLon0.15_PT021H.grib2 2026-04-14 16:07 742K
20260414T12Z_MSC_GDPS_WindU_IsbL-0030_LatLon0.15_PT021H.grib2 2026-04-14 16:07 739K
20260414T12Z_MSC_GDPS_WindU_IsbL-0050_LatLon0.15_PT021H.grib2 2026-04-14 16:08 706K
20260414T12Z_MSC_GDPS_WindU_IsbL-0100_LatLon0.15_PT021H.grib2 2026-04-14 16:07 924K
20260414T12Z_MSC_GDPS_WindU_IsbL-0150_LatLon0.15_PT021H.grib2 2026-04-14 16:07 1.0M
20260414T12Z_MSC_GDPS_WindU_IsbL-0175_LatLon0.15_PT021H.grib2 2026-04-14 16:08 1.0M
20260414T12Z_MSC_GDPS_WindU_IsbL-0200_LatLon0.15_PT021H.grib2 2026-04-14 16:07 1.0M
20260414T12Z_MSC_GDPS_WindU_IsbL-0225_LatLon0.15_PT021H.grib2 2026-04-14 16:07 847K
20260414T12Z_MSC_GDPS_WindU_IsbL-0250_LatLon0.15_PT021H.grib2 2026-04-14 16:07 852K
20260414T12Z_MSC_GDPS_WindU_IsbL-0275_LatLon0.15_PT021H.grib2 2026-04-14 16:07 881K
20260414T12Z_MSC_GDPS_WindU_IsbL-0300_LatLon0.15_PT021H.grib2 2026-04-14 16:07 873K
20260414T12Z_MSC_GDPS_WindU_IsbL-0350_LatLon0.15_PT021H.grib2 2026-04-14 16:07 887K
20260414T12Z_MSC_GDPS_WindU_IsbL-0400_LatLon0.15_PT021H.grib2 2026-04-14 16:07 887K
20260414T12Z_MSC_GDPS_WindU_IsbL-0450_LatLon0.15_PT021H.grib2 2026-04-14 16:07 1.1M
20260414T12Z_MSC_GDPS_WindU_IsbL-0500_LatLon0.15_PT021H.grib2 2026-04-14 16:07 1.1M
20260414T12Z_MSC_GDPS_WindU_IsbL-0550_LatLon0.15_PT021H.grib2 2026-04-14 16:07 1.1M
20260414T12Z_MSC_GDPS_WindU_IsbL-0600_LatLon0.15_PT021H.grib2 2026-04-14 16:07 1.1M
20260414T12Z_MSC_GDPS_WindU_IsbL-0650_LatLon0.15_PT021H.grib2 2026-04-14 16:07 1.2M
20260414T12Z_MSC_GDPS_WindU_IsbL-0700_LatLon0.15_PT021H.grib2 2026-04-14 16:07 1.2M
20260414T12Z_MSC_GDPS_WindU_IsbL-0750_LatLon0.15_PT021H.grib2 2026-04-14 16:07 1.3M
20260414T12Z_MSC_GDPS_WindU_IsbL-0800_LatLon0.15_PT021H.grib2 2026-04-14 16:07 1.4M
20260414T12Z_MSC_GDPS_WindU_IsbL-0850_LatLon0.15_PT021H.grib2 2026-04-14 16:07 1.4M
20260414T12Z_MSC_GDPS_WindU_IsbL-0875_LatLon0.15_PT021H.grib2 2026-04-14 16:07 1.4M
20260414T12Z_MSC_GDPS_WindU_IsbL-0900_LatLon0.15_PT021H.grib2 2026-04-14 16:07 1.5M
20260414T12Z_MSC_GDPS_WindU_IsbL-0925_LatLon0.15_PT021H.grib2 2026-04-14 16:08 1.5M
20260414T12Z_MSC_GDPS_WindU_IsbL-0950_LatLon0.15_PT021H.grib2 2026-04-14 16:07 1.4M
20260414T12Z_MSC_GDPS_WindU_IsbL-0970_LatLon0.15_PT021H.grib2 2026-04-14 16:07 1.4M
20260414T12Z_MSC_GDPS_WindU_IsbL-0985_LatLon0.15_PT021H.grib2 2026-04-14 16:07 1.4M
20260414T12Z_MSC_GDPS_WindU_IsbL-1000_LatLon0.15_PT021H.grib2 2026-04-14 16:07 1.4M
20260414T12Z_MSC_GDPS_WindU_IsbL-1015_LatLon0.15_PT021H.grib2 2026-04-14 16:07 1.3M
20260414T12Z_MSC_GDPS_WindV_AGL-10m_LatLon0.15_PT021H.grib2 2026-04-14 16:07 1.6M
20260414T12Z_MSC_GDPS_WindV_AGL-120m_LatLon0.15_PT021H.grib2 2026-04-14 16:07 966K
20260414T12Z_MSC_GDPS_WindV_AGL-40m_LatLon0.15_PT021H.grib2 2026-04-14 16:07 961K
20260414T12Z_MSC_GDPS_WindV_AGL-80m_LatLon0.15_PT021H.grib2 2026-04-14 16:07 966K
20260414T12Z_MSC_GDPS_WindV_IsbL-0001_LatLon0.15_PT021H.grib2 2026-04-14 16:07 546K
20260414T12Z_MSC_GDPS_WindV_IsbL-0005_LatLon0.15_PT021H.grib2 2026-04-14 16:07 774K
20260414T12Z_MSC_GDPS_WindV_IsbL-0010_LatLon0.15_PT021H.grib2 2026-04-14 16:07 807K
20260414T12Z_MSC_GDPS_WindV_IsbL-0020_LatLon0.15_PT021H.grib2 2026-04-14 16:07 858K
20260414T12Z_MSC_GDPS_WindV_IsbL-0030_LatLon0.15_PT021H.grib2 2026-04-14 16:07 934K
20260414T12Z_MSC_GDPS_WindV_IsbL-0050_LatLon0.15_PT021H.grib2 2026-04-14 16:07 1.0M
20260414T12Z_MSC_GDPS_WindV_IsbL-0100_LatLon0.15_PT021H.grib2 2026-04-14 16:07 852K
20260414T12Z_MSC_GDPS_WindV_IsbL-0150_LatLon0.15_PT021H.grib2 2026-04-14 16:07 1.0M
20260414T12Z_MSC_GDPS_WindV_IsbL-0175_LatLon0.15_PT021H.grib2 2026-04-14 16:07 1.0M
20260414T12Z_MSC_GDPS_WindV_IsbL-0200_LatLon0.15_PT021H.grib2 2026-04-14 16:07 832K
20260414T12Z_MSC_GDPS_WindV_IsbL-0225_LatLon0.15_PT021H.grib2 2026-04-14 16:07 899K
20260414T12Z_MSC_GDPS_WindV_IsbL-0250_LatLon0.15_PT021H.grib2 2026-04-14 16:07 903K
20260414T12Z_MSC_GDPS_WindV_IsbL-0275_LatLon0.15_PT021H.grib2 2026-04-14 16:07 931K
20260414T12Z_MSC_GDPS_WindV_IsbL-0300_LatLon0.15_PT021H.grib2 2026-04-14 16:07 923K
20260414T12Z_MSC_GDPS_WindV_IsbL-0350_LatLon0.15_PT021H.grib2 2026-04-14 16:07 937K
20260414T12Z_MSC_GDPS_WindV_IsbL-0400_LatLon0.15_PT021H.grib2 2026-04-14 16:07 877K
20260414T12Z_MSC_GDPS_WindV_IsbL-0450_LatLon0.15_PT021H.grib2 2026-04-14 16:07 1.1M
20260414T12Z_MSC_GDPS_WindV_IsbL-0500_LatLon0.15_PT021H.grib2 2026-04-14 16:07 1.1M
20260414T12Z_MSC_GDPS_WindV_IsbL-0550_LatLon0.15_PT021H.grib2 2026-04-14 16:07 1.1M
20260414T12Z_MSC_GDPS_WindV_IsbL-0600_LatLon0.15_PT021H.grib2 2026-04-14 16:07 1.1M
20260414T12Z_MSC_GDPS_WindV_IsbL-0650_LatLon0.15_PT021H.grib2 2026-04-14 16:07 1.2M
20260414T12Z_MSC_GDPS_WindV_IsbL-0700_LatLon0.15_PT021H.grib2 2026-04-14 16:07 1.2M
20260414T12Z_MSC_GDPS_WindV_IsbL-0750_LatLon0.15_PT021H.grib2 2026-04-14 16:07 1.3M
20260414T12Z_MSC_GDPS_WindV_IsbL-0800_LatLon0.15_PT021H.grib2 2026-04-14 16:07 1.3M
20260414T12Z_MSC_GDPS_WindV_IsbL-0850_LatLon0.15_PT021H.grib2 2026-04-14 16:08 1.4M
20260414T12Z_MSC_GDPS_WindV_IsbL-0875_LatLon0.15_PT021H.grib2 2026-04-14 16:07 1.4M
20260414T12Z_MSC_GDPS_WindV_IsbL-0900_LatLon0.15_PT021H.grib2 2026-04-14 16:07 1.5M
20260414T12Z_MSC_GDPS_WindV_IsbL-0925_LatLon0.15_PT021H.grib2 2026-04-14 16:07 1.4M
20260414T12Z_MSC_GDPS_WindV_IsbL-0950_LatLon0.15_PT021H.grib2 2026-04-14 16:07 1.4M
20260414T12Z_MSC_GDPS_WindV_IsbL-0970_LatLon0.15_PT021H.grib2 2026-04-14 16:07 1.4M
20260414T12Z_MSC_GDPS_WindV_IsbL-0985_LatLon0.15_PT021H.grib2 2026-04-14 16:07 1.4M
20260414T12Z_MSC_GDPS_WindV_IsbL-1000_LatLon0.15_PT021H.grib2 2026-04-14 16:07 1.7M
20260414T12Z_MSC_GDPS_WindV_IsbL-1015_LatLon0.15_PT021H.grib2 2026-04-14 16:07 1.6M